TimeHST,TemperatureF,Dew PointF,Humidity,Sea Level PressureIn,VisibilityMPH,Wind Direction,Wind SpeedMPH,Gust SpeedMPH,PrecipitationIn,Events,Conditions,WindDirDegrees,DateUTC
12:16 AM,37.4,-13.0,11,29.70,10.0,WNW,25.3,34.5,N/A,,Overcast,290,2012-12-14 10:16:00
12:36 AM,35.6,-13.0,12,29.71,10.0,West,17.3,21.9,N/A,,Scattered Clouds,280,2012-12-14 10:36:00
12:56 AM,35.6,-11.2,13,29.72,5.0,WNW,19.6,36.8,N/A,,Mostly Cloudy,290,2012-12-14 10:56:00
1:16 AM,35.6,-13.0,12,29.73,10.0,West,21.9,27.6,N/A,,Mostly Cloudy,280,2012-12-14 11:16:00
1:36 AM,37.4,-11.2,12,29.73,10.0,West,29.9,39.1,N/A,,Mostly Cloudy,270,2012-12-14 11:36:00
1:56 AM,35.6,-13.0,12,29.75,2.5,West,35.7,44.9,N/A,,Mostly Cloudy,270,2012-12-14 11:56:00
2:16 AM,33.8,-14.8,12,29.75,8.0,WNW,19.6,31.1,N/A,,Overcast,290,2012-12-14 12:16:00
2:36 AM,35.6,-14.8,11,29.76,10.0,WNW,17.3,25.3,N/A,,Overcast,290,2012-12-14 12:36:00
2:56 AM,35.6,-13.0,12,29.75,10.0,WNW,27.6,33.4,N/A,,Mostly Cloudy,290,2012-12-14 12:56:00
3:16 AM,35.6,-13.0,12,29.77,10.0,West,18.4,29.9,N/A,,Overcast,270,2012-12-14 13:16:00
3:36 AM,35.6,-13.0,12,29.77,8.0,West,18.4,28.8,N/A,,Mostly Cloudy,270,2012-12-14 13:36:00
3:56 AM,35.6,-13.0,12,29.77,10.0,West,25.3,36.8,N/A,,Scattered Clouds,270,2012-12-14 13:56:00
4:16 AM,37.4,-13.0,11,29.77,10.0,West,23.0,34.5,N/A,,Mostly Cloudy,270,2012-12-14 14:16:00
4:36 AM,35.6,-13.0,12,29.78,10.0,West,13.8,40.3,N/A,,Overcast,260,2012-12-14 14:36:00
4:56 AM,35.6,-13.0,12,29.78,10.0,West,17.3,26.5,N/A,,Overcast,270,2012-12-14 14:56:00
5:16 AM,35.6,-13.0,12,29.78,10.0,West,16.1,27.6,N/A,,Scattered Clouds,270,2012-12-14 15:16:00
5:36 AM,35.6,-13.0,12,29.78,10.0,West,17.3,27.6,N/A,,Scattered Clouds,270,2012-12-14 15:36:00
5:56 AM,33.8,-14.8,12,29.79,10.0,WSW,12.7,21.9,N/A,,Scattered Clouds,250,2012-12-14 15:56:00
6:16 AM,33.8,-14.8,12,29.79,10.0,West,9.2,17.3,N/A,,Clear,270,2012-12-14 16:16:00
6:36 AM,33.8,-14.8,12,29.79,10.0,West,17.3,20.7,N/A,,Partly Cloudy,260,2012-12-14 16:36:00
6:56 AM,33.8,-14.8,12,29.79,10.0,West,17.3,23.0,N/A,,Partly Cloudy,260,2012-12-14 16:56:00
7:16 AM,35.6,-14.8,11,29.79,10.0,West,18.4,27.6,N/A,,Clear,270,2012-12-14 17:16:00
7:36 AM,35.6,-9999,N/A,29.80,10.0,West,10.4,-,N/A,,Clear,260,2012-12-14 17:36:00
7:56 AM,33.8,-14.8,12,29.79,10.0,WSW,9.2,-,N/A,,Partly Cloudy,250,2012-12-14 17:56:00
8:16 AM,33.8,-14.8,12,29.80,10.0,WSW,9.2,17.3,N/A,,Partly Cloudy,250,2012-12-14 18:16:00
8:36 AM,33.8,-14.8,12,29.80,10.0,West,8.1,-,N/A,,Clear,270,2012-12-14 18:36:00
8:56 AM,33.8,-16.6,11,29.80,10.0,West,11.5,16.1,N/A,,Clear,270,2012-12-14 18:56:00
9:16 AM,33.8,-14.8,12,29.80,10.0,WSW,8.1,17.3,N/A,,Clear,250,2012-12-14 19:16:00
9:36 AM,32.0,-16.6,12,29.80,10.0,WSW,10.4,-,N/A,,Clear,250,2012-12-14 19:36:00
9:56 AM,32.0,-16.6,12,29.80,10.0,West,15.0,20.7,N/A,,Clear,260,2012-12-14 19:56:00
10:16 AM,33.8,-14.8,12,29.80,10.0,West,11.5,19.6,N/A,,Scattered Clouds,270,2012-12-14 20:16:00
10:36 AM,35.6,-9999,N/A,29.80,10.0,West,17.3,26.5,N/A,,Partly Cloudy,270,2012-12-14 20:36:00
10:56 AM,35.6,-13.0,12,29.81,10.0,WSW,13.8,20.7,N/A,,Scattered Clouds,250,2012-12-14 20:56:00
11:16 AM,37.4,-11.2,12,29.81,10.0,West,20.7,27.6,N/A,,Mostly Cloudy,270,2012-12-14 21:16:00
11:36 AM,35.6,-11.2,13,29.83,0.5,West,20.7,42.6,N/A,,Overcast,260,2012-12-14 21:36:00
11:56 AM,33.8,-14.8,12,29.83,7.0,West,25.3,38.0,N/A,,Mostly Cloudy,270,2012-12-14 21:56:00
12:16 PM,33.8,-14.8,12,29.83,4.0,West,12.7,17.3,N/A,,Overcast,260,2012-12-14 22:16:00
12:36 PM,35.6,-13.0,12,29.82,10.0,West,24.2,39.1,N/A,,Mostly Cloudy,270,2012-12-14 22:36:00
12:56 PM,37.4,-11.2,12,29.82,10.0,West,15.0,32.2,N/A,,Overcast,270,2012-12-14 22:56:00
1:16 PM,37.4,-11.2,12,29.82,9.0,West,23.0,34.5,N/A,,Overcast,260,2012-12-14 23:16:00
1:36 PM,37.4,-11.2,12,29.83,10.0,West,21.9,29.9,N/A,,Overcast,260,2012-12-14 23:36:00
1:56 PM,37.4,-11.2,12,29.82,10.0,West,34.5,41.4,N/A,,Overcast,280,2012-12-14 23:56:00
2:16 PM,35.6,-13.0,12,29.83,8.0,West,25.3,34.5,N/A,,Overcast,270,2012-12-15 00:16:00
2:36 PM,35.6,-13.0,12,29.84,10.0,West,27.6,36.8,N/A,,Mostly Cloudy,280,2012-12-15 00:36:00
2:56 PM,35.6,-13.0,12,29.85,10.0,West,29.9,41.4,N/A,,Overcast,270,2012-12-15 00:56:00
3:16 PM,33.8,-14.8,12,29.85,10.0,West,19.6,27.6,N/A,,Mostly Cloudy,270,2012-12-15 01:16:00
3:36 PM,33.8,-14.8,12,29.86,2.5,WNW,21.9,39.1,N/A,,Mostly Cloudy,300,2012-12-15 01:36:00
3:56 PM,33.8,-14.8,12,29.86,10.0,West,19.6,27.6,N/A,,Mostly Cloudy,280,2012-12-15 01:56:00
4:16 PM,35.6,-9999,N/A,29.86,10.0,West,24.2,32.2,N/A,,Overcast,270,2012-12-15 02:16:00
4:36 PM,35.6,-14.8,11,29.88,10.0,West,21.9,33.4,N/A,,Mostly Cloudy,270,2012-12-15 02:36:00
4:56 PM,35.6,-9999,N/A,29.88,10.0,West,18.4,24.2,N/A,,Mostly Cloudy,280,2012-12-15 02:56:00
5:16 PM,35.6,-14.8,11,29.88,10.0,West,19.6,25.3,N/A,,Mostly Cloudy,280,2012-12-15 03:16:00
5:36 PM,35.6,-9999,N/A,29.90,10.0,West,20.7,27.6,N/A,,Mostly Cloudy,270,2012-12-15 03:36:00
5:56 PM,33.8,-14.8,12,29.89,10.0,West,20.7,31.1,N/A,,Mostly Cloudy,270,2012-12-15 03:56:00
6:16 PM,33.8,-14.8,12,29.90,5.0,West,26.5,33.4,N/A,,Mostly Cloudy,270,2012-12-15 04:16:00
6:36 PM,32.0,-16.6,12,29.91,10.0,West,16.1,19.6,N/A,,Scattered Clouds,270,2012-12-15 04:36:00
6:56 PM,33.8,-14.8,12,29.91,10.0,West,21.9,27.6,N/A,,Scattered Clouds,260,2012-12-15 04:56:00
7:16 PM,33.8,-14.8,12,29.91,10.0,West,19.6,27.6,N/A,,Scattered Clouds,270,2012-12-15 05:16:00
7:36 PM,33.8,-14.8,12,29.91,10.0,West,23.0,28.8,N/A,,Clear,270,2012-12-15 05:36:00
7:56 PM,33.8,-14.8,12,29.91,10.0,West,24.2,34.5,N/A,,Mostly Cloudy,280,2012-12-15 05:56:00
8:16 PM,33.8,-14.8,12,29.91,8.0,West,24.2,32.2,N/A,,Mostly Cloudy,270,2012-12-15 06:16:00
8:36 PM,33.8,-14.8,12,29.92,10.0,WNW,17.3,27.6,N/A,,Mostly Cloudy,300,2012-12-15 06:36:00
8:56 PM,33.8,-14.8,12,29.93,10.0,WNW,18.4,26.5,N/A,,Scattered Clouds,300,2012-12-15 06:56:00
9:16 PM,33.8,-14.8,12,29.93,10.0,WNW,13.8,-,N/A,,Mostly Cloudy,300,2012-12-15 07:16:00
9:36 PM,33.8,-14.8,12,29.94,10.0,WNW,13.8,20.7,N/A,,Mostly Cloudy,300,2012-12-15 07:36:00
9:56 PM,32.0,-14.8,13,29.94,7.0,NW,16.1,27.6,N/A,,Overcast,320,2012-12-15 07:56:00
10:16 PM,30.2,-16.6,13,29.94,10.0,WNW,17.3,21.9,N/A,,Scattered Clouds,290,2012-12-15 08:16:00
10:36 PM,33.8,-14.8,12,29.93,10.0,WNW,13.8,25.3,N/A,,Scattered Clouds,290,2012-12-15 08:36:00
10:56 PM,33.8,-14.8,12,29.92,10.0,WNW,10.4,17.3,N/A,,Mostly Cloudy,300,2012-12-15 08:56:00
11:16 PM,33.8,-14.8,12,29.93,10.0,West,13.8,20.7,N/A,,Mostly Cloudy,280,2012-12-15 09:16:00
11:36 PM,33.8,-14.8,12,29.93,10.0,WNW,15.0,20.7,N/A,,Overcast,290,2012-12-15 09:36:00
11:56 PM,32.0,-14.8,13,29.93,10.0,WNW,12.7,-,N/A,,Scattered Clouds,300,2012-12-15 09:56:00